Amsterdam, Netherlands

4:30 AM CEST on October 17, 2017 (GMT +0200)
Schiphol

Weather History for EHAM - September, 2013

Change the Weather History Date:

Thursday, September 12, 2013

  Actual Average Record
Temperature  
Mean Temperature 60 °F -  
Max Temperature 66 °F 61 °F 81 °F (2016)
Min Temperature 54 °F 49 °F 47 °F (2012)
Degree Days  
Heating Degree Days 5    
Growing Degree Days 10 (Base 50)    
Moisture  
Dew Point 56 °F    
Average Humidity 88    
Maximum Humidity 100    
Minimum Humidity 68    
Precipitation  
Precipitation 0.00 in - - ()
Sea Level Pressure  
Sea Level Pressure 30.01 in    
Wind  
Wind Speed 7 mph ()    
Max Wind Speed 13 mph    
Max Gust Speed -    
Visibility 6.5 miles    
Events Rain    
Averages and records for this station are not official NWS values.
T = Trace of Precipitation, MM = Missing Value Source: Averaged Metar Reports

Daily Weather History Graph

Daily Weather History Graph

Search for Another Location

Airport or City:

Trip Planner

Search our weather history database for the weather conditions in past years. The results will help you decide how hot, cold, wet, or windy it might be!

Date:

Astronomy

Sep. 12, 2013 Rise Set
Actual Time 7:10 AM CEST 8:02 PM CEST
Civil Twilight 6:35 AM CEST 8:37 PM CEST
Nautical Twilight 5:54 AM CEST 9:18 PM CEST
Astronomical Twilight 5:09 AM CEST 10:02 PM CEST
Moon 3:13 PM CEST (9/12) 11:51 PM CEST (9/12)
Length of Visible Light 14h 01m
Length of Day
12h 52m
Waxing Crescent, 47% of the Moon is Illuminated
Sep 12
Waxing Crescent
Sep 12
First Quarter
Sep 19
Full
Sep 27
Last Quarter
Oct 5
New

Hourly Weather History & Observations

Time (CEST) Temp. Dew Point Humidity Pressure Visibility Wind Dir Wind Speed Gust Speed Precip Events Conditions
12:25 AM 57.2 °F 55.4 °F 94% 29.98 in 3.7 mi NNW 9.2 mph - N/A Rain Light Rain Showers
12:55 AM 57.2 °F 55.4 °F 94% 29.98 in 5.6 mi NW 8.1 mph - N/A Rain Light Rain Showers
1:25 AM 57.2 °F 57.2 °F 100% 29.98 in 6.2 mi NNW 8.1 mph - N/A   Scattered Clouds
1:55 AM 57.2 °F 55.4 °F 94% 29.98 in 6.2 mi NNW 8.1 mph - N/A Rain Light Rain Showers
2:00 AM 57 °F 56 °F 93% 30.00 in 14 mi NNW 8.9 mph - - Rain Rain
2:25 AM 57.2 °F 55.4 °F 94% 29.98 in 4.3 mi NNW 8.1 mph - N/A Rain Light Rain Showers
2:55 AM 57.2 °F 55.4 °F 94% 29.98 in 3.1 mi NNW 6.9 mph - N/A Rain Rain Showers
3:25 AM 57.2 °F 55.4 °F 94% 29.98 in - NW 8.1 mph - N/A Rain Rain Showers
3:55 AM 57.2 °F 57.2 °F 100% 29.98 in 5.0 mi NW 6.9 mph - N/A Rain Light Rain Showers
4:25 AM 55.4 °F 55.4 °F 100% 29.98 in 3.1 mi NNW 9.2 mph - N/A Rain Rain Showers
4:55 AM 55.4 °F 53.6 °F 94% 29.98 in 6.2 mi NW 6.9 mph - N/A   Mostly Cloudy
5:25 AM 55.4 °F 53.6 °F 94% 29.98 in 6.2 mi North 3.5 mph - N/A   Scattered Clouds
5:55 AM 55.4 °F 53.6 °F 94% 29.98 in 6.2 mi West 4.6 mph - N/A Rain Light Rain Showers
6:25 AM 55.4 °F 55.4 °F 100% 29.98 in 6.2 mi WNW 4.6 mph - N/A   Mostly Cloudy
6:55 AM 55.4 °F 55.4 °F 100% 29.98 in 6.2 mi West 5.8 mph - N/A   Mostly Cloudy
7:25 AM 57.2 °F 55.4 °F 94% 29.98 in 6.2 mi North 3.5 mph - N/A   Mostly Cloudy
7:55 AM 55.4 °F 55.4 °F 100% 29.98 in 6.2 mi West 2.3 mph - N/A   Mostly Cloudy
8:00 AM 56 °F 56 °F 100% 30.00 in 16 mi West 2.2 mph - -   Partly Cloudy
8:25 AM 57.2 °F 57.2 °F 100% 29.98 in 6.2 mi West 3.5 mph - N/A   Partly Cloudy
8:55 AM 59.0 °F 55.4 °F 88% 30.01 in 6.2 mi West 4.6 mph - N/A   Partly Cloudy
9:25 AM 59.0 °F 57.2 °F 94% 30.01 in 6.2 mi NW 5.8 mph - N/A   Partly Cloudy
9:55 AM 60.8 °F 57.2 °F 88% 30.01 in 6.2 mi NW 6.9 mph - N/A   Partly Cloudy
10:25 AM 60.8 °F 55.4 °F 82% 30.01 in 6.2 mi NW 10.4 mph - N/A   Partly Cloudy
10:55 AM 60.8 °F 55.4 °F 82% 30.01 in 6.2 mi NW 10.4 mph - N/A   Partly Cloudy
11:25 AM 62.6 °F 57.2 °F 82% 30.01 in 6.2 mi WNW 6.9 mph - N/A   Partly Cloudy
11:55 AM 62.6 °F 55.4 °F 77% 30.01 in 6.2 mi WNW 9.2 mph - N/A   Scattered Clouds
12:25 PM 62.6 °F 57.2 °F 82% 30.01 in 6.2 mi WNW 10.4 mph - N/A   Partly Cloudy
12:55 PM 62.6 °F 57.2 °F 82% 30.01 in 6.2 mi West 8.1 mph - N/A   Scattered Clouds
1:25 PM 62.6 °F 55.4 °F 77% 30.01 in 6.2 mi WNW 8.1 mph - N/A   Scattered Clouds
1:55 PM 66.2 °F 59.0 °F 78% 30.01 in 6.2 mi WNW 8.1 mph - N/A   Scattered Clouds
2:00 PM 64 °F 56 °F 68% 30.04 in 25 mi WNW 8.9 mph - - Rain Rain
2:25 PM 66.2 °F 55.4 °F 68% 30.01 in 6.2 mi WNW 9.2 mph - N/A   Scattered Clouds
2:55 PM 66.2 °F 55.4 °F 68% 30.01 in 6.2 mi WNW 11.5 mph - N/A   Partly Cloudy
3:25 PM 62.6 °F 59.0 °F 88% 30.01 in 6.2 mi NW 12.7 mph - N/A Rain Light Rain Showers
3:55 PM 62.6 °F 59.0 °F 88% 30.01 in 6.2 mi NW 10.4 mph - N/A Rain Light Rain Showers
4:25 PM 64.4 °F 59.0 °F 83% 30.01 in 6.2 mi NW 8.1 mph - N/A   Partly Cloudy
4:55 PM 66.2 °F 57.2 °F 73% 30.01 in 6.2 mi NNW 8.1 mph - N/A   Partly Cloudy
5:00 PM 64 °F 57 °F 70% 30.03 in 22 mi NNW 8.9 mph - -   Partly Cloudy
5:55 PM 64.4 °F 57.2 °F 77% 30.01 in 6.2 mi NW 10.4 mph - N/A   Partly Cloudy
6:25 PM 64.4 °F 55.4 °F 73% 30.01 in 6.2 mi NNW 10.4 mph - N/A   Partly Cloudy
6:55 PM 64.4 °F 57.2 °F 77% 30.01 in 6.2 mi NW 8.1 mph - N/A   Partly Cloudy
7:25 PM 60.8 °F 55.4 °F 82% 30.04 in 6.2 mi NNW 9.2 mph - N/A   Partly Cloudy
7:55 PM 60.8 °F 55.4 °F 82% 30.04 in 6.2 mi NNW 9.2 mph - N/A   Partly Cloudy
8:00 PM 60 °F 55 °F 80% 30.06 in 28 mi NNW 8.9 mph - -   Partly Cloudy
8:25 PM 59.0 °F 55.4 °F 88% 30.04 in 6.2 mi NNW 6.9 mph - N/A   Partly Cloudy
8:55 PM 57.2 °F 55.4 °F 94% 30.06 in 6.2 mi NW 5.8 mph - N/A   Partly Cloudy
9:25 PM 57.2 °F 55.4 °F 94% 30.06 in 6.2 mi NW 5.8 mph - N/A   Partly Cloudy
9:55 PM 57.2 °F 55.4 °F 94% 30.06 in 6.2 mi WNW 4.6 mph - N/A   Partly Cloudy
10:25 PM 57.2 °F 55.4 °F 94% 30.06 in 6.2 mi NW 3.5 mph - N/A   Partly Cloudy
10:55 PM 57.2 °F 55.4 °F 94% 30.06 in 6.2 mi WNW 5.8 mph - N/A   Scattered Clouds
11:00 PM 58 °F 56 °F 93% 30.09 in 14 mi WNW 4.5 mph - -   Overcast
11:25 PM 59.0 °F 55.4 °F 88% 30.06 in 6.2 mi NW 4.6 mph - N/A   Scattered Clouds
11:55 PM 57.2 °F 55.4 °F 94% 30.06 in 6.2 mi WNW 5.8 mph - N/A   Scattered Clouds